STARLINK-32368

decayed
NORAD ID: 61067 Int'l Des: 2024-164 Owner: SPXS Country: US Constellation: starlink
LEOCIRCULAR
グループ

STARLINK-32368について

説明を読み込み中...

高度履歴

Altitude vs Time

uPlot chart will show altitude changes over time

軌道要素

1 61067U 24164T 24353.55646124 .47201277 12288-4 52783-2 0 9999
2 61067 53.1375 1.5396 0006640 68.3431 24.4475 16.36258315 16183
Epoch: Dec 18, 2024 • Age: 6535 hours

現在のステータス

Position data unavailable
打ち上げ日 Sep 13, 2024
運用期間 1 years
落下予定日 Dec 18, 2024
タイプ internet

技術仕様

分類 Payload
質量 730.00 kg
乾燥質量 700.00 kg
総質量 730.00 kg
長さ 0.30 m
直径 4.10 m
スパン 29.00 m
形状 Box + pan
製造者 SPXS
バスタイプ Starlink V2M
フェーズステータス Reentered
所有者/国 SPXS/US

大規模コンステレーション

Loading constellations...